TimeEDT,TemperatureF,Dew PointF,Humidity,Sea Level PressureIn,VisibilityMPH,Wind Direction,Wind SpeedMPH,Gust SpeedMPH,PrecipitationIn,Events,Conditions,WindDirDegrees,DateUTC
12:56 AM,69.1,66.9,93,29.87,8.0,NW,4.6,-,N/A,,Mostly Cloudy,320,2012-10-16 04:56:00
1:56 AM,69.1,64.0,84,29.88,10.0,North,5.8,-,N/A,,Mostly Cloudy,350,2012-10-16 05:56:00
2:56 AM,68.0,63.0,84,29.88,10.0,NNW,5.8,-,N/A,,Mostly Cloudy,330,2012-10-16 06:56:00
3:56 AM,64.9,61.0,87,29.87,10.0,NNW,5.8,-,N/A,,Mostly Cloudy,330,2012-10-16 07:56:00
4:56 AM,63.0,60.1,90,29.88,10.0,NNW,8.1,-,N/A,,Mostly Cloudy,340,2012-10-16 08:56:00
5:56 AM,60.8,57.2,88,29.88,10.0,NNW,8.1,-,N/A,,Scattered Clouds,340,2012-10-16 09:56:00
6:56 AM,60.1,55.0,83,29.90,10.0,NNW,5.8,-,N/A,,Partly Cloudy,340,2012-10-16 10:56:00
7:56 AM,59.0,53.6,82,29.91,10.0,North,5.8,-,N/A,,Partly Cloudy,350,2012-10-16 11:56:00
8:56 AM,62.1,54.0,75,29.93,10.0,North,6.9,-,N/A,,Partly Cloudy,360,2012-10-16 12:56:00
9:56 AM,66.0,55.0,68,29.94,10.0,North,6.9,-,N/A,,Partly Cloudy,10,2012-10-16 13:56:00
10:56 AM,71.1,57.9,63,29.92,10.0,NNE,9.2,-,N/A,,Partly Cloudy,30,2012-10-16 14:56:00
11:56 AM,75.2,57.2,53,29.92,10.0,NE,15.0,-,N/A,,Partly Cloudy,40,2012-10-16 15:56:00
12:56 PM,75.9,55.9,50,29.91,10.0,NE,13.8,-,N/A,,Partly Cloudy,50,2012-10-16 16:56:00
1:56 PM,77.0,55.9,48,29.88,10.0,ENE,13.8,19.6,N/A,,Scattered Clouds,60,2012-10-16 17:56:00
2:56 PM,77.0,55.0,47,29.87,10.0,NE,13.8,18.4,N/A,,Scattered Clouds,40,2012-10-16 18:56:00
3:56 PM,75.9,57.0,52,29.87,10.0,NE,11.5,16.1,N/A,,Scattered Clouds,50,2012-10-16 19:56:00
4:56 PM,73.0,55.9,55,29.87,10.0,ENE,10.4,-,N/A,,Mostly Cloudy,60,2012-10-16 20:56:00
5:56 PM,70.0,55.9,61,29.89,10.0,NNE,6.9,-,N/A,,Mostly Cloudy,20,2012-10-16 21:56:00
6:56 PM,66.2,55.4,68,29.88,10.0,ENE,6.9,-,N/A,,Mostly Cloudy,60,2012-10-16 22:56:00
7:56 PM,64.0,55.9,75,29.89,10.0,NE,6.9,-,N/A,,Mostly Cloudy,50,2012-10-16 23:56:00
8:56 PM,61.0,55.9,83,29.89,10.0,NE,4.6,-,N/A,,Mostly Cloudy,50,2012-10-17 00:56:00
9:56 PM,62.1,55.9,80,29.90,10.0,ENE,4.6,-,N/A,,Mostly Cloudy,60,2012-10-17 01:56:00
10:56 PM,61.0,55.9,83,29.90,10.0,NE,3.5,-,N/A,,Mostly Cloudy,50,2012-10-17 02:56:00
11:56 PM,60.1,55.9,86,29.90,10.0,Calm,Calm,-,N/A,,Mostly Cloudy,0,2012-10-17 03:56:00